Location: Woodhurst
(52.3667°N, 0.0667°W)
Time: 19:33:15
(UTC+00:00)

Cosmos 1455 - Pass Details

Date: 19 May 2025
Orbit: 324 x 332 km, 82.5° (Epoch: 21 June)

Event Time Altitude Azimuth Distance (km) Brightness Sun altitude
Rises 23:46:02 0° 359° (N) 2,171 7.1 -17.6°
Reaches altitude 10° 23:48:16 10° 15° (NNE) 1,313 5.4 -17.6°
Maximum altitude 23:50:36 23° 71° (ENE) 801 3.3 -17.6°
Enters shadow 23:51:15 21° 93° (E) 848 3.2 -17.6°
